STARLINK-32221 (60342 NORAD) Tracking and Keplerian Element Data

This shows tracking and keplerian element data for the satellite.

Feedback or suggestion? Click here.




ElementValue
Catalog60342
NameSTARLINK-32221
Epoch Orbit1113
Epoch Day286.76221578
Epoch Year2024
RAAN298.1167
Inclination53.1604
Eccentricity0.0001367
Argument of Perigee98.9581
Mean Anonmoly261.1574
Mean Motion15.30182497
Decay Rate-1.691E-05
L11 60342U 24136P 24286.76221578 -.00001691 00000+0 -44996-4 0 9995
L22 60342 53.1604 298.1167 0001367 98.9581 261.1574 15.30182497 11139



Live tracking and technical data element details for STARLINK-32221 (NORAD 60342). STARLINK-32221 can be tracked NOW for your location showing map with azimuth and elevation plus other details from your city location.







IsCatalogInMostPopularTable: catalog: 60342, numindb: 8
Update: records affected: 1



GetName: 60342 STARLINK-32221

Hit Count: updated at: Wed, 04 Dec 2024 18:10:00 GMT